EW7586 Weather Reports


Display with metric or nautical units.
time (UTC)temp
F
wind
direction
speed
MPH
gust
MPH
rain 1hr
in
rain 24hr
in
rain mn
in
humidity
%
barometer
mb
20210926013230 73 3 0.0 2.0 0.00 0.00 0.00 21 1019.8
20210926012730 74 0 1.0 2.0 0.00 0.00 0.00 22 1019.8
20210926012230 75 343 0.0 0.0 0.00 0.00 0.00 21 1019.9
20210926011729 75 336 0.0 0.0 0.00 0.00 0.00 21 1019.8
20210926011231 76 336 0.0 0.0 0.00 0.00 0.00 21 1019.8
20210926010731 76 336 0.0 0.0 0.00 0.00 0.00 21 1019.8
20210926010229 77 336 0.0 0.0 0.00 0.00 0.00 20 1019.8
20210926005729 77 336 0.0 2.0 0.00 0.00 0.00 20 1019.8
20210926005230 78 336 1.0 2.0 0.00 0.00 0.00 20 1019.9
20210926004729 78 336 0.0 3.0 0.00 0.00 0.00 20 1019.9
20210926004230 78 338 1.0 3.0 0.00 0.00 0.00 20 1019.9
20210926003728 78 282 0.0 2.0 0.00 0.00 0.00 19 1019.9
20210926003228 78 276 0.0 2.0 0.00 0.00 0.00 20 1019.9
20210926002728 78 247 0.0 2.0 0.00 0.00 0.00 20 1020.0
20210926002228 78 227 1.0 2.0 0.00 0.00 0.00 20 1020.0
20210926001727 78 340 0.0 3.0 0.00 0.00 0.00 20 1019.9
20210926001227 78 340 1.0 3.0 0.00 0.00 0.00 20 1019.9
20210926000728 78 323 2.0 3.0 0.00 0.00 0.00 19 1020.0
20210926000227 78 305 0.0 4.0 0.00 0.00 0.00 19 1020.2
20210925235727 78 314 2.0 4.0 0.00 0.00 0.00 20 1020.3
20210925235227 78 321 1.0 4.0 0.00 0.00 0.00 21 1020.3
20210925234728 78 303 2.0 4.0 0.00 0.00 0.00 19 1020.2
20210925234227 78 251 2.0 6.0 0.00 0.00 0.00 20 1020.0
20210925233728 78 326 3.0 6.0 0.00 0.00 0.00 19 1020.0
20210925233226 78 11 2.0 7.0 0.00 0.00 0.00 19 1020.2
20210925232731 79 337 4.0 7.0 0.00 0.00 0.00 19 1020.2
20210925232226 78 316 0.0 4.0 0.00 0.00 0.00 18 1020.2
20210925231728 78 334 2.0 4.0 0.00 0.00 0.00 18 1020.3
20210925231227 78 321 1.0 4.0 0.00 0.00 0.00 18 1020.2
20210925230728 78 316 0.0 2.0 0.00 0.00 0.00 17 1020.3
20210925230226 78 314 2.0 4.0 0.00 0.00 0.00 17 1020.4
20210925225729 78 310 1.0 5.0 0.00 0.00 0.00 17 1020.6
20210925225226 78 302 4.0 6.0 0.00 0.00 0.00 17 1020.5
20210925224726 79 27 1.0 6.0 0.00 0.00 0.00 17 1020.5
20210925224224 79 196 0.0 3.0 0.00 0.00 0.00 17 1020.6
20210925223726 78 196 1.0 4.0 0.00 0.00 0.00 18 1020.7
20210925223225 78 118 1.0 4.0 0.00 0.00 0.00 18 1020.7
20210925222725 78 230 1.0 2.0 0.00 0.00 0.00 18 1020.9
20210925222225 78 231 0.0 0.0 0.00 0.00 0.00 18 1021.1
20210925221726 78 231 0.0 0.0 0.00 0.00 0.00 19 1021.0
20210925221226 78 220 0.0 4.0 0.00 0.00 0.00 20 1021.1
20210925220726 77 210 0.0 4.0 0.00 0.00 0.00 20 1021.1
20210925220226 77 0 1.0 5.0 0.00 0.00 0.00 19 1021.1
20210925215724 77 348 3.0 5.0 0.00 0.00 0.00 20 1021.2
20210925215223 77 282 2.0 6.0 0.00 0.00 0.00 20 1021.2
20210925214726 76 0 2.0 6.0 0.00 0.00 0.00 20 1021.4
20210925214224 76 275 4.0 6.0 0.00 0.00 0.00 20 1021.3
20210925213725 76 329 3.0 6.0 0.00 0.00 0.00 20 1021.4
20210925213225 76 336 1.0 5.0 0.00 0.00 0.00 22 1021.6
20210925212725 76 357 2.0 5.0 0.00 0.00 0.00 21 1021.7
20210925212225 76 195 2.0 3.0 0.00 0.00 0.00 22 1021.6
20210925211725 76 250 1.0 3.0 0.00 0.00 0.00 22 1021.6
20210925211224 76 310 1.0 3.0 0.00 0.00 0.00 21 1021.6
20210925210723 76 288 2.0 4.0 0.00 0.00 0.00 21 1021.8
20210925210222 76 290 1.0 6.0 0.00 0.00 0.00 22 1021.8
20210925205723 76 357 3.0 6.0 0.00 0.00 0.00 22 1021.8
20210925205223 76 319 2.0 5.0 0.00 0.00 0.00 23 1021.9
20210925204724 76 333 1.0 4.0 0.00 0.00 0.00 23 1021.9
20210925204222 76 288 0.0 2.0 0.00 0.00 0.00 22 1021.9
20210925203721 75 321 1.0 3.0 0.00 0.00 0.00 23 1022.1
20210925203222 75 321 1.0 3.0 0.00 0.00 0.00 22 1022.0
20210925202723 76 268 1.0 3.0 0.00 0.00 0.00 23 1022.0
20210925202221 76 329 1.0 4.0 0.00 0.00 0.00 24 1022.3
20210925201721 75 140 2.0 4.0 0.00 0.00 0.00 23 1022.4
20210925201222 75 302 1.0 4.0 0.00 0.00 0.00 21 1022.4
20210925200723 75 17 0.0 2.0 0.00 0.00 0.00 23 1022.5
20210925200223 75 293 0.0 3.0 0.00 0.00 0.00 25 1022.5
20210925195722 75 269 1.0 3.0 0.00 0.00 0.00 24 1022.5
20210925195221 74 243 1.0 5.0 0.00 0.00 0.00 25 1022.7
20210925194722 74 157 2.0 5.0 0.00 0.00 0.00 26 1022.7
20210925194220 74 286 0.0 2.0 0.00 0.00 0.00 27 1022.7
20210925193721 74 285 0.0 2.0 0.00 0.00 0.00 26 1022.8
20210925193221 74 220 1.0 3.0 0.00 0.00 0.00 26 1023.0
20210925192720 74 224 1.0 6.0 0.00 0.00 0.00 26 1023.0
20210925192222 73 216 0.0 6.0 0.00 0.00 0.00 27 1023.0
20210925191720 73 309 1.0 3.0 0.00 0.00 0.00 29 1023.1
20210925191220 73 193 1.0 3.0 0.00 0.00 0.00 29 1023.2
20210925190720 72 209 1.0 3.0 0.00 0.00 0.00 29 1023.2
20210925190220 72 207 0.0 3.0 0.00 0.00 0.00 29 1023.3
20210925185722 72 196 2.0 3.0 0.00 0.00 0.00 28 1023.3
20210925185220 72 217 0.0 2.0 0.00 0.00 0.00 28 1023.3
20210925184718 71 219 1.0 2.0 0.00 0.00 0.00 30 1023.3
20210925184219 71 196 0.0 3.0 0.00 0.00 0.00 29 1023.3
20210925183719 70 212 1.0 3.0 0.00 0.00 0.00 30 1023.4
20210925183217 70 192 1.0 3.0 0.00 0.00 0.00 30 1023.4
20210925182718 70 269 0.0 0.0 0.00 0.00 0.00 31 1023.4
20210925182216 69 274 0.0 0.0 0.00 0.00 0.00 31 1023.5
20210925181717 69 274 0.0 0.0 0.00 0.00 0.00 32 1023.5
20210925181217 68 274 0.0 0.0 0.00 0.00 0.00 31 1023.5
20210925180716 67 274 0.0 3.0 0.00 0.00 0.00 33 1023.7
20210925180216 67 275 0.0 3.0 0.00 0.00 0.00 34 1023.7
20210925175716 67 288 0.0 2.0 0.00 0.00 0.00 36 1023.7
20210925175218 66 288 0.0 2.0 0.00 0.00 0.00 36 1023.7
20210925174716 66 288 0.0 3.0 0.00 0.00 0.00 36 1023.8
20210925174216 65 307 0.0 3.0 0.00 0.00 0.00 36 1023.8
20210925173716 65 251 0.0 3.0 0.00 0.00 0.00 37 1023.9
20210925173216 65 224 1.0 2.0 0.00 0.00 0.00 39 1023.9
20210925172715 64 224 0.0 2.0 0.00 0.00 0.00 38 1023.8
20210925172217 64 224 0.0 3.0 0.00 0.00 0.00 39 1023.9
20210925171717 64 224 2.0 3.0 0.00 0.00 0.00 37 1023.9
20210925171216 63 214 0.0 2.0 0.00 0.00 0.00 38 1023.9
20210925170715 63 214 0.0 2.0 0.00 0.00 0.00 39 1024.0
20210925170216 63 214 1.0 2.0 0.00 0.00 0.00 38 1024.1
20210925165716 63 155 0.0 0.0 0.00 0.00 0.00 38 1024.0
20210925165214 63 155 0.0 0.0 0.00 0.00 0.00 38 1023.8
20210925164714 63 155 0.0 0.0 0.00 0.00 0.00 38 1024.0
20210925164214 63 155 0.0 0.0 0.00 0.00 0.00 39 1024.0
20210925163717 63 155 0.0 0.0 0.00 0.00 0.00 40 1024.0
20210925163215 63 155 0.0 0.0 0.00 0.00 0.00 42 1024.0
20210925162715 63 155 0.0 0.0 0.00 0.00 0.00 43 1023.9
20210925162215 63 155 0.0 0.0 0.00 0.00 0.00 41 1024.0
20210925161713 63 155 0.0 0.0 0.00 0.00 0.00 40 1023.9
20210925161214 63 103 0.0 0.0 0.00 0.00 0.00 35 1023.9
20210925160714 63 103 0.0 0.0 0.00 0.00 0.00 34 1023.9
20210925160214 63 103 0.0 0.0 0.00 0.00 0.00 36 1023.9
20210925155714 63 103 0.0 0.0 0.00 0.00 0.00 34 1023.9
20210925155214 63 103 0.0 0.0 0.00 0.00 0.00 35 1023.8
20210925154715 62 103 0.0 0.0 0.00 0.00 0.00 40 1023.9
20210925154214 62 103 0.0 0.0 0.00 0.00 0.00 36 1023.9
20210925153714 61 103 0.0 0.0 0.00 0.00 0.00 37 1023.7
20210925153212 60 103 0.0 0.0 0.00 0.00 0.00 37 1023.7
20210925152712 59 103 0.0 0.0 0.00 0.00 0.00 37 1023.8
20210925152213 59 103 0.0 0.0 0.00 0.00 0.00 38 1023.9
20210925151713 59 103 0.0 0.0 0.00 0.00 0.00 37 1023.8
20210925151212 59 103 0.0 0.0 0.00 0.00 0.00 37 1023.9
20210925150712 59 103 0.0 0.0 0.00 0.00 0.00 37 1023.8
20210925150213 59 103 0.0 2.0 0.00 0.00 0.00 37 1023.7
20210925145712 59 103 0.0 3.0 0.00 0.00 0.00 37 1023.8
20210925145212 59 103 2.0 3.0 0.00 0.00 0.00 37 1023.8
20210925144711 59 103 0.0 1.0 0.00 0.00 0.00 36 1023.7
20210925144213 59 103 0.0 1.0 0.00 0.00 0.00 36 1023.7
20210925143713 60 103 0.0 2.0 0.00 0.00 0.00 36 1023.7
20210925143212 60 103 1.0 3.0 0.00 0.00 0.00 35 1023.7
20210925142712 60 103 2.0 3.0 0.00 0.00 0.00 35 1023.7
20210925142212 59 109 0.0 2.0 0.00 0.00 0.00 35 1023.7
20210925141711 59 109 0.0 1.0 0.00 0.00 0.00 35 1023.7
20210925141211 59 109 0.0 2.0 0.00 0.00 0.00 34 1023.5
20210925140711 59 109 0.0 3.0 0.00 0.00 0.00 35 1023.5
20210925140212 59 109 0.0 3.0 0.00 0.00 0.00 36 1023.5
20210925135711 59 109 0.0 0.0 0.00 0.00 0.00 35 1023.5
20210925135212 60 109 0.0 0.0 0.00 0.00 0.00 35 1023.7
20210925134711 60 109 0.0 0.0 0.00 0.00 0.00 35 1023.7
20210925134210 59 109 0.0 0.0 0.00 0.00 0.00 36 1023.7
20210925133711 59 109 0.0 0.0 0.00 0.00 0.00 36 1023.5
20210925133211 59 109 0.0 0.0 0.00 0.00 0.00 36 1023.5
20210925132712 59 109 0.0 0.0 0.00 0.00 0.00 36 1023.5
20210925132211 60 109 0.0 0.0 0.00 0.00 0.00 35 1023.7
20210925131711 60 109 0.0 0.0 0.00 0.00 0.00 35 1023.4
20210925131210 60 109 0.0 0.0 0.00 0.00 0.00 35 1023.4
20210925130711 60 109 0.0 0.0 0.00 0.00 0.00 35 1023.4
20210925130211 59 109 0.0 0.0 0.00 0.00 0.00 34 1023.4
20210925125713 59 109 0.0 0.0 0.00 0.00 0.00 34 1023.4
20210925125211 59 109 0.0 0.0 0.00 0.00 0.00 35 1023.4
20210925124709 59 109 0.0 0.0 0.00 0.00 0.00 36 1023.3
20210925124209 59 109 0.0 0.0 0.00 0.00 0.00 36 1023.3
20210925123708 60 109 0.0 0.0 0.00 0.00 0.00 36 1023.3
20210925123208 60 109 0.0 0.0 0.00 0.00 0.00 36 1023.5
20210925122709 60 109 0.0 0.0 0.00 0.00 0.00 35 1023.3
20210925122210 60 109 0.0 0.0 0.00 0.00 0.00 34 1023.5
20210925121709 60 109 0.0 0.0 0.00 0.00 0.00 34 1023.4
20210925121209 59 109 0.0 0.0 0.00 0.00 0.00 35 1023.4
20210925120709 59 109 0.0 0.0 0.00 0.00 0.00 36 1023.4
20210925120207 59 109 0.0 0.0 0.00 0.00 0.00 36 1023.3
20210925115707 59 109 0.0 0.0 0.00 0.00 0.00 36 1023.3
20210925115208 59 109 0.0 0.0 0.00 0.00 0.00 35 1023.2
20210925114707 60 109 0.0 0.0 0.00 0.00 0.00 35 1023.4
20210925114209 60 109 0.0 0.0 0.00 0.00 0.00 34 1023.3
20210925113708 60 109 0.0 0.0 0.00 0.00 0.00 34 1023.3
20210925113207 60 109 0.0 2.0 0.00 0.00 0.00 34 1023.4
20210925112707 60 109 0.0 2.0 0.00 0.00 0.00 33 1023.4
20210925112207 60 109 2.0 3.0 0.00 0.00 0.00 33 1023.3
20210925111706 60 109 2.0 3.0 0.00 0.00 0.00 33 1023.4
20210925111206 60 109 1.0 2.0 0.00 0.00 0.00 33 1023.3
20210925110707 60 109 1.0 2.0 0.00 0.00 0.00 33 1023.4
20210925110207 60 109 2.0 2.0 0.00 0.00 0.00 32 1023.3
20210925105708 60 109 1.0 1.0 0.00 0.00 0.00 32 1023.4
20210925105207 60 109 0.0 3.0 0.00 0.00 0.00 32 1023.4
20210925104705 60 109 1.0 4.0 0.00 0.00 0.00 32 1023.4
20210925104208 61 106 2.0 4.0 0.00 0.00 0.00 31 1023.3
20210925103708 61 137 2.0 5.0 0.00 0.00 0.00 31 1023.3
20210925103208 61 99 2.0 5.0 0.00 0.00 0.00 31 1023.2
20210925102705 61 111 2.0 4.0 0.00 0.00 0.00 31 1023.3
20210925102207 61 110 3.0 4.0 0.00 0.00 0.00 31 1023.2
20210925101704 61 92 1.0 4.0 0.00 0.00 0.00 31 1023.2
20210925101204 61 92 3.0 4.0 0.00 0.00 0.00 31 1023.3
20210925100705 61 106 3.0 5.0 0.00 0.00 0.00 31 1023.2
20210925100205 61 87 3.0 5.0 0.00 0.00 0.00 31 1023.3
20210925095706 61 94 3.0 5.0 0.00 0.00 0.00 31 1023.3
20210925095205 61 92 2.0 4.0 0.00 0.00 0.00 31 1023.3
20210925094704 61 100 2.0 3.0 0.00 0.00 0.00 30 1023.2
20210925094205 61 107 2.0 4.0 0.00 0.00 0.00 30 1023.3
20210925093704 61 107 3.0 4.0 0.00 0.00 0.00 30 1023.3
20210925093203 61 109 2.0 3.0 0.00 0.00 0.00 30 1023.4
20210925092704 61 111 2.0 3.0 0.00 0.00 0.00 30 1023.3
20210925092204 61 111 2.0 3.0 0.00 0.00 0.00 30 1023.4
20210925091704 61 111 0.0 0.0 0.00 0.00 0.00 30 1023.4
20210925091204 61 111 0.0 0.0 0.00 0.00 0.00 30 1023.4
20210925090705 61 111 0.0 0.0 0.00 0.00 0.00 29 1023.3
20210925090204 62 111 0.0 0.0 0.00 0.00 0.00 29 1023.4
20210925085704 62 111 0.0 1.0 0.00 0.00 0.00 29 1023.3
20210925085204 62 111 0.0 2.0 0.00 0.00 0.00 29 1023.3
20210925084704 62 111 1.0 2.0 0.00 0.00 0.00 29 1023.2
20210925084202 62 111 0.0 3.0 0.00 0.00 0.00 28 1023.2
20210925083704 62 111 2.0 3.0 0.00 0.00 0.00 28 1023.3
20210925083202 63 111 2.0 3.0 0.00 0.00 0.00 27 1023.3
20210925082702 63 113 2.0 3.0 0.00 0.00 0.00 27 1023.3
20210925082202 63 113 2.0 3.0 0.00 0.00 0.00 27 1023.2
20210925081704 63 113 2.0 3.0 0.00 0.00 0.00 27 1023.3
20210925081203 63 113 2.0 3.0 0.00 0.00 0.00 28 1023.3
20210925080702 62 113 2.0 3.0 0.00 0.00 0.00 28 1023.3
20210925080201 62 113 2.0 3.0 0.00 0.00 0.00 28 1023.3
20210925075702 62 113 2.0 3.0 0.00 0.00 0.00 28 1023.3
20210925075202 62 113 2.0 3.0 0.00 0.00 0.00 28 1023.3
20210925074702 62 113 2.0 3.0 0.00 0.00 0.00 28 1023.4
20210925074203 62 113 2.0 3.0 0.00 0.00 0.00 28 1023.3
20210925073704 62 113 2.0 3.0 0.00 0.00 0.00 28 1023.4
20210925073201 63 113 3.0 3.0 0.00 0.00 0.00 27 1023.4
20210925072703 63 111 1.0 3.0 0.00 0.00 0.00 27 1023.4
20210925072202 63 111 2.0 3.0 0.00 0.00 0.00 27 1023.4
20210925071701 63 111 2.0 3.0 0.00 0.00 0.00 27 1023.4
20210925071203 63 111 2.0 4.0 0.00 0.00 0.00 27 1023.4
20210925070703 63 111 2.0 4.0 0.00 0.00 0.00 27 1023.5
20210925070201 63 117 2.0 3.0 0.00 0.00 0.00 27 1023.5
20210925065702 63 117 2.0 3.0 0.00 0.00 0.00 27 1023.4
20210925065201 63 117 2.0 3.0 0.00 0.00 0.00 27 1023.4
20210925064701 63 117 2.0 3.0 0.00 0.00 0.00 27 1023.4
20210925064201 63 117 2.0 3.0 0.00 0.00 0.00 27 1023.4
20210925063700 63 117 2.0 3.0 0.00 0.00 0.00 28 1023.4
20210925063201 63 117 2.0 3.0 0.00 0.00 0.00 28 1023.5
20210925062659 63 117 2.0 3.0 0.00 0.00 0.00 27 1023.5
20210925062159 63 118 2.0 3.0 0.00 0.00 0.00 27 1023.7
20210925061701 63 117 0.0 3.0 0.00 0.00 0.00 27 1023.7
20210925061201 63 117 2.0 3.0 0.00 0.00 0.00 27 1023.5
20210925060701 63 118 2.0 3.0 0.00 0.00 0.00 26 1023.5
20210925060200 63 118 2.0 3.0 0.00 0.00 0.00 26 1023.5
20210925055659 64 117 2.0 3.0 0.00 0.00 0.00 26 1023.4
20210925055159 64 117 2.0 3.0 0.00 0.00 0.00 26 1023.5
20210925054700 64 118 2.0 3.0 0.00 0.00 0.00 26 1023.4
20210925054159 64 118 2.0 3.0 0.00 0.00 0.00 27 1023.4
20210925053658 64 118 2.0 3.0 0.00 0.00 0.00 27 1023.5
20210925053159 64 117 2.0 3.0 0.00 0.00 0.00 27 1023.4
20210925052659 64 118 2.0 3.0 0.00 0.00 0.00 27 1023.5
20210925052200 64 118 2.0 3.0 0.00 0.00 0.00 27 1023.7
20210925051700 64 118 2.0 3.0 0.00 0.00 0.00 27 1023.7
20210925051158 64 118 1.0 3.0 0.00 0.00 0.00 27 1023.5
20210925050659 64 118 2.0 3.0 0.00 0.00 0.00 27 1023.5
20210925050157 64 118 1.0 3.0 0.00 0.00 0.00 26 1023.5
20210925045659 64 118 2.0 3.0 0.00 0.00 0.00 26 1023.7
20210925045157 64 118 2.0 3.0 0.00 0.00 0.00 27 1023.7
20210925044658 64 118 0.0 3.0 0.00 0.00 0.00 27 1023.7
20210925044159 64 118 2.0 3.0 0.00 0.00 0.00 27 1023.7
20210925043659 64 118 2.0 3.0 0.00 0.00 0.00 27 1023.5
20210925043158 64 118 2.0 3.0 0.00 0.00 0.00 28 1023.7
20210925042658 64 118 2.0 4.0 0.00 0.00 0.00 28 1023.7
20210925042156 64 111 2.0 4.0 0.00 0.00 0.00 28 1023.7
20210925041657 64 110 2.0 4.0 0.00 0.00 0.00 28 1023.8
20210925041158 64 116 2.0 3.0 0.00 0.00 0.00 28 1023.8
20210925040657 64 107 2.0 3.0 0.00 0.00 0.00 28 1023.8
20210925040158 65 107 2.0 4.0 0.00 0.00 0.00 27 1023.7
20210925035657 65 107 1.0 4.0 0.00 0.00 0.00 27 1023.8
20210925035158 65 107 0.0 3.0 0.00 0.00 0.00 27 1023.8
20210925034656 65 107 1.0 2.0 0.00 0.00 0.00 27 1023.8
20210925034157 65 107 0.0 3.0 0.00 0.00 0.00 26 1023.7
20210925033657 65 107 1.0 3.0 0.00 0.00 0.00 26 1023.7
20210925033157 66 99 1.0 2.0 0.00 0.00 0.00 25 1023.7
20210925032659 66 99 0.0 3.0 0.00 0.00 0.00 25 1023.7
20210925032157 66 99 0.0 3.0 0.00 0.00 0.00 24 1023.7
20210925031657 66 99 1.0 2.0 0.00 0.00 0.00 25 1023.7
20210925031157 67 100 0.0 4.0 0.00 0.00 0.00 24 1023.7
20210925030655 67 63 1.0 4.0 0.00 0.00 0.00 25 1023.5
20210925030155 67 31 3.0 5.0 0.00 0.00 0.00 25 1023.5
20210925025656 67 47 1.0 5.0 0.00 0.00 0.00 24 1023.7
20210925025156 67 49 4.0 5.0 0.00 0.00 0.00 25 1023.5
20210925024656 67 55 3.0 5.0 0.00 0.00 0.00 25 1023.5
20210925024156 67 58 3.0 7.0 0.00 0.00 0.00 25 1023.7
20210925023656 67 44 5.0 7.0 0.00 0.00 0.00 26 1023.5
20210925023155 67 85 3.0 5.0 0.00 0.00 0.00 26 1023.5
20210925022657 67 76 3.0 5.0 0.00 0.00 0.00 26 1023.5
20210925022155 67 62 2.0 5.0 0.00 0.00 0.00 27 1023.7
20210925021655 67 58 2.0 5.0 0.00 0.00 0.00 27 1023.5
20210925021155 67 55 3.0 5.0 0.00 0.00 0.00 27 1023.5
20210925020653 67 116 3.0 5.0 0.00 0.00 0.00 27 1023.7
20210925020154 67 103 2.0 4.0 0.00 0.00 0.00 28 1023.7
20210925015655 67 76 2.0 4.0 0.00 0.00 0.00 28 1023.5
20210925015154 67 62 1.0 4.0 0.00 0.00 0.00 28 1023.5
20210925014656 68 68 1.0 4.0 0.00 0.00 0.00 29 1023.5
20210925014156 68 58 3.0 4.0 0.00 0.00 0.00 29 1023.5